Location: Sungai Bunut
(2.6333°N, 113.7333°E)
Time: 01:19:21
(UTC+00:00)

S-56A Canister/Altair - Pass Details

Date: 04 December 2023
Orbit: 640 x 2488 km, 38.9° (Epoch: 24 February)

Event Time Altitude Azimuth Distance (km) Brightness Sun altitude
Rises 23:16:50 0° 217° (SW) 5,361 11.7 13.2°
Reaches altitude 10° 23:21:05 10° 211° (SSW) 4,066 11.2 14.1°
Maximum altitude 23:30:25 41° 144° (SE) 1,794 10.5 16.3°
Drops below altitude 10° 23:36:45 10° 75° (ENE) 2,772 11.3 17.7°
Sets 23:39:06 0° 68° (ENE) 3,528 11.6 18.2°
